Location: Newark
(47.5833°N, 8.1500°E)
Time: 11:04:16
(UTC+00:00)

Transit 2A - Pass Details

Date: 01 November 2020
Orbit: 595 x 964 km, 66.7° (Epoch: 27 November)

Event Time Altitude Azimuth Distance (km) Brightness Sun altitude
Rises 04:34:03 0° 314° (NW) 3,590 - -16.9°
Exits shadow 04:36:34 - 329° (NNW) 2,956 8.7 -16.5°
Reaches altitude 10° 04:38:37 10° 345° (NNW) 2,576 8.5 -16.1°
Maximum altitude 04:40:50 12° 7° (N) 2,392 8.6 -15.7°
Drops below altitude 10° 04:42:59 10° 29° (NNE) 2,490 8.9 -15.4°
Sets 04:47:12 0° 60° (ENE) 3,326 10.2 -14.7°
